contact:dominique.lefevre@mio.osupytheas.fr, maurice.libes@osupytheas.fr, didier.mallarino@osupytheas.fr
Project:EMSO http://www.emso-fr.org/EMSO-France
Depth: 2436.0 m
Title:EMSO Ligure Ouest : Data MII capteur AQUADOPP
Date,Latitude,Longitude,X_East,Y_North,Z_Up,Amplitude_X,Amplitude_Y,Amplitude_Z,Batterie,SoundSpeed,Heading,Pitch,Roll,Pressure,TIS,Speed,Direction
, degrees North, degrees East, m.s-1, m.s-1,m.s-1, 1, 1, 1, Volt, m.s-1, degree, degree, degree, dbar, degree_C, m.s-1, degree
2020-09-08T00:04:03,42.805,6.029,0.029,0.003,0.002,103.0,108.0,101.0,13.3,1505.3,326.7,-0.8,1.9,2470.478,13.31,0.029,84.1
2020-09-08T00:07:03,42.805,6.029,0.011,-0.006,-0.024,104.0,107.0,102.0,13.4,1505.3,325.4,-0.7,1.8,2470.49,13.31,0.012,118.6
2020-09-08T00:10:03,42.805,6.029,0.024,0.001,0.009,105.0,107.0,101.0,13.4,1505.3,323.6,-0.7,1.8,2470.496,13.32,0.024,87.6
2020-09-08T00:13:03,42.805,6.029,0.024,0.001,0.002,103.0,107.0,101.0,13.4,1505.3,325.4,-0.7,1.8,2470.46,13.32,0.024,87.6
2020-09-08T00:16:03,42.805,6.029,0.031,-0.017,0.018,103.0,108.0,102.0,13.4,1505.3,328.3,-0.7,1.8,2470.471,13.32,0.035,118.7
2020-09-08T00:19:03,42.805,6.029,0.01,0.0,-0.015,102.0,107.0,101.0,13.4,1505.3,323.2,-0.7,1.8,2470.437,13.32,0.01,90.0
2020-09-08T00:22:03,42.805,6.029,0.023,-0.009,-0.019,103.0,108.0,102.0,13.4,1505.3,325.0,-0.7,1.8,2470.471,13.32,0.024,111.4
2020-09-08T00:25:03,42.805,6.029,0.009,-0.004,-0.003,102.0,106.0,101.0,13.4,1505.3,324.4,-0.7,1.8,2470.464,13.32,0.009,114.0
2020-09-08T00:28:03,42.805,6.029,0.025,-0.01,0.009,102.0,108.0,101.0,13.4,1505.3,325.6,-0.7,1.8,2470.417,13.32,0.026,111.8
2020-09-08T00:31:03,42.805,6.029,0.023,-0.015,-0.009,104.0,105.0,101.0,13.4,1505.3,328.2,-0.7,1.8,2470.464,13.32,0.027,123.1
2020-09-08T00:34:03,42.805,6.029,0.039,-0.015,-0.016,103.0,105.0,100.0,13.4,1505.3,323.2,-0.7,1.9,2470.435,13.32,0.041,111.0
2020-09-08T00:37:04,42.805,6.029,0.012,-0.008,-0.027,103.0,106.0,100.0,13.3,1505.3,324.1,-0.7,1.8,2470.45,13.32,0.014,123.7
2020-09-08T00:40:03,42.805,6.029,0.033,-0.001,0.013,104.0,108.0,101.0,13.4,1505.3,323.0,-0.7,1.8,2470.461,13.32,0.033,91.7
2020-09-08T00:43:03,42.805,6.029,0.034,-0.021,-0.007,104.0,110.0,101.0,13.4,1505.3,324.3,-0.7,1.8,2470.424,13.33,0.039,121.7
2020-09-08T00:46:05,42.805,6.029,-0.002,-0.006,-0.011,104.0,106.0,102.0,13.4,1505.3,326.6,-0.7,1.8,2470.396,13.33,0.006,198.4
2020-09-08T00:49:03,42.805,6.029,0.046,0.006,0.03,103.0,106.0,102.0,13.4,1505.3,326.6,-0.7,1.8,2470.429,13.32,0.046,82.6
2020-09-08T00:52:03,42.805,6.029,-0.02,-0.013,-0.028,103.0,107.0,101.0,13.4,1505.3,323.5,-0.7,1.8,2470.378,13.33,0.023,237.0
2020-09-08T00:55:03,42.805,6.029,0.012,-0.028,-0.012,103.0,107.0,102.0,13.4,1505.3,325.8,-0.7,1.8,2470.399,13.32,0.03,156.8
2020-09-08T00:58:03,42.805,6.029,0.005,-0.018,-0.031,103.0,108.0,102.0,13.4,1505.3,324.8,-0.7,1.9,2470.414,13.32,0.018,164.5
2020-09-08T01:04:03,42.805,6.029,-0.013,0.001,-0.055,104.0,107.0,102.0,13.3,1505.3,323.1,-0.7,1.8,2470.443,13.31,0.013,274.4
2020-09-08T01:07:03,42.805,6.029,0.015,-0.007,-0.006,103.0,107.0,102.0,13.4,1505.3,324.7,-0.7,1.8,2470.454,13.31,0.016,115.0
2020-09-08T01:10:03,42.805,6.029,0.021,0.006,0.008,103.0,105.0,101.0,13.4,1505.3,325.2,-0.7,1.9,2470.458,13.32,0.021,74.1
2020-09-08T01:13:03,42.805,6.029,0.037,-0.007,0.006,102.0,107.0,102.0,13.3,1505.3,326.4,-0.7,1.8,2470.424,13.32,0.037,100.7
2020-09-08T01:16:03,42.805,6.029,0.016,-0.012,-0.01,103.0,106.0,101.0,13.3,1505.3,325.5,-0.7,1.8,2470.442,13.32,0.02,126.9
2020-09-08T01:19:03,42.805,6.029,0.006,-0.007,-0.001,103.0,107.0,101.0,13.3,1505.3,323.8,-0.7,1.8,2470.391,13.32,0.009,139.4
2020-09-08T01:22:03,42.805,6.029,0.023,0.004,0.002,106.0,108.0,100.0,13.4,1505.3,324.6,-0.7,1.8,2470.389,13.32,0.023,80.1
2020-09-08T01:25:03,42.805,6.029,0.033,-0.029,-0.006,104.0,108.0,102.0,13.4,1505.3,323.7,-0.7,1.8,2470.366,13.32,0.043,131.3
2020-09-08T01:28:03,42.805,6.029,0.02,-0.007,-0.012,103.0,108.0,101.0,13.3,1505.3,324.4,-0.7,1.8,2470.387,13.32,0.021,109.3
2020-09-08T01:31:03,42.805,6.029,0.011,-0.003,0.006,104.0,108.0,101.0,13.3,1505.3,328.2,-0.7,1.8,2470.401,13.33,0.011,105.3
2020-09-08T01:34:03,42.805,6.029,0.028,-0.013,0.012,104.0,108.0,101.0,13.3,1505.3,326.6,-0.7,1.8,2470.424,13.33,0.03,114.9
2020-09-08T01:37:03,42.805,6.029,0.042,-0.01,0.002,103.0,106.0,101.0,13.3,1505.3,322.3,-0.7,1.8,2470.392,13.33,0.043,103.4
2020-09-08T01:40:04,42.805,6.029,0.013,0.007,0.018,102.0,108.0,102.0,13.4,1505.3,326.4,-0.7,1.8,2470.404,13.32,0.014,61.7
2020-09-08T01:43:03,42.805,6.029,0.069,-0.014,0.021,103.0,107.0,100.0,13.4,1505.3,326.4,-0.7,1.8,2470.406,13.32,0.07,101.5
2020-09-08T01:46:04,42.805,6.029,0.044,-0.01,-0.003,103.0,105.0,100.0,13.4,1505.3,323.1,-0.7,1.8,2470.341,13.32,0.045,102.8
2020-09-08T01:49:03,42.805,6.029,0.03,-0.018,0.015,102.0,106.0,100.0,13.4,1505.3,323.3,-0.7,1.8,2470.416,13.32,0.034,121.0
2020-09-08T01:52:03,42.805,6.029,0.004,-0.015,-0.055,101.0,105.0,102.0,13.4,1505.3,327.7,-0.7,1.8,2470.396,13.32,0.015,165.1
2020-09-08T01:55:03,42.805,6.029,0.001,0.0,0.0,103.0,105.0,102.0,13.4,1505.3,326.0,-0.7,1.8,2470.38,13.32,0.001,90.0
2020-09-08T01:58:03,42.805,6.029,0.009,-0.007,0.0,103.0,106.0,102.0,13.4,1505.3,326.3,-0.7,1.8,2470.404,13.32,0.011,127.9
2020-09-08T02:04:03,42.805,6.029,0.025,-0.012,-0.018,103.0,106.0,100.0,13.4,1505.2,324.2,-0.8,1.8,2470.425,13.3,0.027,115.6
2020-09-08T02:07:03,42.805,6.029,0.018,-0.016,-0.019,103.0,106.0,100.0,13.4,1505.3,326.6,-0.7,1.8,2470.39,13.31,0.024,131.6
2020-09-08T02:10:03,42.805,6.029,0.028,-0.02,0.008,104.0,107.0,100.0,13.4,1505.3,325.9,-0.7,1.9,2470.373,13.32,0.034,125.5
2020-09-08T02:13:03,42.805,6.029,0.039,-0.006,0.001,104.0,107.0,102.0,13.4,1505.3,322.9,-0.7,1.8,2470.39,13.32,0.039,98.7
2020-09-08T02:16:04,42.805,6.029,0.008,-0.013,0.014,105.0,106.0,101.0,13.4,1505.3,322.3,-0.7,1.8,2470.382,13.32,0.015,148.4
2020-09-08T02:19:03,42.805,6.029,0.036,0.002,-0.016,104.0,107.0,102.0,13.3,1505.3,322.8,-0.7,1.8,2470.367,13.32,0.036,86.8
2020-09-08T02:22:03,42.805,6.029,0.078,0.004,0.025,103.0,106.0,103.0,13.3,1505.3,323.2,-0.7,1.9,2470.391,13.32,0.078,87.1
2020-09-08T02:25:03,42.805,6.029,0.032,-0.016,0.013,102.0,108.0,101.0,13.3,1505.3,323.6,-0.7,1.8,2470.391,13.32,0.035,116.6
2020-09-08T02:28:03,42.805,6.029,0.009,-0.018,-0.007,103.0,107.0,101.0,13.4,1505.3,326.0,-0.7,1.8,2470.357,13.32,0.02,153.4
2020-09-08T02:31:03,42.805,6.029,0.03,-0.005,0.029,102.0,107.0,101.0,13.4,1505.3,328.2,-0.7,1.8,2470.389,13.32,0.03,99.5
2020-09-08T02:34:04,42.805,6.029,0.043,-0.01,0.004,103.0,107.0,102.0,13.4,1505.3,324.5,-0.7,1.8,2470.349,13.32,0.044,103.1
2020-09-08T02:37:03,42.805,6.029,0.035,-0.005,-0.006,103.0,108.0,100.0,13.4,1505.3,327.1,-0.7,1.8,2470.37,13.32,0.035,98.1
2020-09-08T02:40:03,42.805,6.029,0.025,-0.027,-0.019,104.0,106.0,101.0,13.3,1505.3,327.5,-0.7,1.8,2470.383,13.32,0.036,137.2
2020-09-08T02:43:03,42.805,6.029,0.042,-0.023,-0.001,104.0,106.0,101.0,13.3,1505.3,325.6,-0.7,1.8,2470.359,13.32,0.047,118.7
2020-09-08T02:46:06,42.805,6.029,0.039,-0.011,0.016,104.0,107.0,100.0,13.3,1505.3,326.9,-0.7,1.8,2470.407,13.32,0.04,105.7
2020-09-08T02:49:03,42.805,6.029,0.017,-0.004,-0.004,104.0,109.0,101.0,13.4,1505.3,328.3,-0.7,1.8,2470.335,13.32,0.017,103.2
2020-09-08T02:52:03,42.805,6.029,0.015,-0.012,0.018,102.0,108.0,102.0,13.4,1505.3,327.8,-0.7,1.8,2470.363,13.32,0.019,128.7
2020-09-08T02:55:03,42.805,6.029,0.029,0.0,0.005,105.0,106.0,101.0,13.4,1505.3,324.7,-0.7,1.9,2470.348,13.32,0.028,90.0
2020-09-08T02:58:03,42.805,6.029,0.019,-0.002,-0.015,105.0,107.0,102.0,13.3,1505.3,326.3,-0.7,1.8,2470.338,13.32,0.019,96.0
2020-09-08T03:04:03,42.805,6.029,0.018,-0.017,0.0,103.0,109.0,101.0,13.4,1505.2,327.2,-0.7,1.8,2470.389,13.3,0.024,133.4
2020-09-08T03:07:03,42.805,6.029,0.034,-0.009,0.008,103.0,106.0,102.0,13.3,1505.3,323.1,-0.7,1.8,2470.411,13.31,0.035,104.8
2020-09-08T03:10:03,42.805,6.029,0.033,-0.017,0.011,103.0,107.0,102.0,13.4,1505.3,324.9,-0.7,1.7,2470.392,13.32,0.037,117.3
2020-09-08T03:13:03,42.805,6.029,0.025,-0.024,-0.004,104.0,107.0,101.0,13.4,1505.3,326.1,-0.7,1.9,2470.39,13.32,0.034,133.8
2020-09-08T03:16:05,42.805,6.029,0.066,-0.008,0.05,103.0,107.0,102.0,13.4,1505.3,326.7,-0.7,1.8,2470.383,13.32,0.066,96.9
2020-09-08T03:19:03,42.805,6.029,0.028,-0.01,-0.02,103.0,105.0,102.0,13.3,1505.3,326.7,-0.7,1.8,2470.316,13.32,0.029,109.6
2020-09-08T03:22:03,42.805,6.029,0.044,-0.02,0.009,103.0,106.0,102.0,13.4,1505.3,326.6,-0.7,1.8,2470.421,13.32,0.048,114.4
2020-09-08T03:25:03,42.805,6.029,0.06,-0.018,0.024,104.0,107.0,102.0,13.3,1505.3,326.9,-0.7,1.8,2470.378,13.32,0.062,106.7
2020-09-08T03:28:03,42.805,6.029,0.069,-0.015,0.042,104.0,107.0,101.0,13.4,1505.3,324.5,-0.7,1.8,2470.374,13.32,0.07,102.3
2020-09-08T03:31:03,42.805,6.029,0.043,-0.023,0.006,103.0,107.0,101.0,13.3,1505.3,328.2,-0.7,1.8,2470.348,13.32,0.048,118.1
2020-09-08T03:34:03,42.805,6.029,0.026,-0.015,-0.016,103.0,107.0,101.0,13.3,1505.3,323.9,-0.7,1.8,2470.382,13.32,0.03,120.0
2020-09-08T03:37:03,42.805,6.029,0.029,0.001,0.022,104.0,108.0,102.0,13.4,1505.3,325.6,-0.7,1.8,2470.355,13.32,0.029,88.0
2020-09-08T03:40:03,42.805,6.029,0.03,-0.018,-0.01,104.0,108.0,102.0,13.4,1505.3,326.3,-0.7,1.8,2470.376,13.32,0.034,121.0
2020-09-08T03:43:03,42.805,6.029,0.021,-0.027,0.035,104.0,107.0,102.0,13.4,1505.3,326.6,-0.7,1.8,2470.367,13.32,0.034,142.1
2020-09-08T03:46:03,42.805,6.029,0.044,-0.02,0.028,104.0,108.0,102.0,13.3,1505.3,325.2,-0.7,1.8,2470.355,13.32,0.048,114.4
2020-09-08T03:49:03,42.805,6.029,0.036,-0.015,-0.013,103.0,107.0,102.0,13.4,1505.3,324.7,-0.7,1.8,2470.342,13.32,0.039,112.6
2020-09-08T03:52:03,42.805,6.029,0.057,-0.014,0.011,105.0,106.0,102.0,13.3,1505.3,328.1,-0.7,1.8,2470.334,13.32,0.058,103.8
2020-09-08T03:55:03,42.805,6.029,0.05,-0.004,-0.008,103.0,108.0,102.0,13.4,1505.3,324.3,-0.7,1.8,2470.357,13.32,0.05,94.6
2020-09-08T03:58:03,42.805,6.029,0.044,-0.01,0.014,105.0,107.0,102.0,13.4,1505.3,325.8,-0.7,1.8,2470.362,13.32,0.045,102.8
2020-09-08T04:04:03,42.805,6.029,0.053,-0.018,0.017,104.0,107.0,102.0,13.4,1505.2,327.0,-0.7,1.8,2470.383,13.3,0.055,108.8
2020-09-08T04:07:03,42.805,6.029,0.038,-0.011,0.006,104.0,106.0,102.0,13.4,1505.3,326.5,-0.7,1.8,2470.364,13.31,0.039,106.1
2020-09-08T04:10:03,42.805,6.029,0.043,-0.018,-0.009,104.0,106.0,102.0,13.4,1505.3,326.6,-0.7,1.8,2470.365,13.32,0.046,112.7
2020-09-08T04:13:03,42.805,6.029,0.022,-0.014,-0.018,103.0,109.0,102.0,13.4,1505.3,324.3,-0.7,1.8,2470.342,13.32,0.026,122.5
2020-09-08T04:16:03,42.805,6.029,0.015,-0.013,0.008,104.0,106.0,102.0,13.3,1505.3,325.1,-0.7,1.8,2470.382,13.32,0.019,130.9
2020-09-08T04:19:03,42.805,6.029,0.039,-0.018,0.0,103.0,108.0,102.0,13.4,1505.3,324.6,-0.7,1.8,2470.353,13.32,0.042,114.8
2020-09-08T04:22:03,42.805,6.029,0.02,-0.037,-0.004,103.0,106.0,101.0,13.3,1505.3,325.9,-0.7,1.8,2470.358,13.33,0.042,151.6
2020-09-08T04:25:03,42.805,6.029,0.024,-0.015,0.017,104.0,107.0,102.0,13.4,1505.3,324.2,-0.7,1.8,2470.381,13.32,0.028,122.0
2020-09-08T04:28:03,42.805,6.029,0.033,-0.015,0.0,104.0,107.0,102.0,13.4,1505.3,326.1,-0.7,1.8,2470.36,13.32,0.036,114.4
2020-09-08T04:31:03,42.805,6.029,0.011,-0.027,-0.009,106.0,107.0,102.0,13.3,1505.3,323.7,-0.7,1.9,2470.34,13.33,0.029,157.8
2020-09-08T04:34:04,42.805,6.029,0.011,-0.021,0.001,103.0,108.0,103.0,13.4,1505.3,326.4,-0.7,1.8,2470.367,13.33,0.023,152.4
2020-09-08T04:37:03,42.805,6.029,0.042,-0.014,0.007,104.0,107.0,103.0,13.3,1505.3,324.3,-0.7,1.9,2470.395,13.33,0.044,108.4
2020-09-08T04:40:03,42.805,6.029,0.038,-0.008,0.027,105.0,108.0,102.0,13.3,1505.3,323.4,-0.7,1.9,2470.339,13.33,0.038,101.9
2020-09-08T04:43:03,42.805,6.029,0.019,-0.017,-0.004,104.0,106.0,102.0,13.3,1505.3,326.8,-0.7,1.8,2470.408,13.33,0.025,131.8
2020-09-08T04:46:03,42.805,6.029,0.036,-0.015,0.006,105.0,107.0,101.0,13.3,1505.3,325.2,-0.7,1.8,2470.338,13.33,0.039,112.6
2020-09-08T04:49:03,42.805,6.029,0.01,-0.031,-0.035,103.0,105.0,103.0,13.4,1505.3,324.4,-0.7,1.8,2470.341,13.33,0.032,162.1
2020-09-08T04:52:03,42.805,6.029,0.017,-0.015,-0.021,104.0,106.0,101.0,13.4,1505.3,324.5,-0.7,1.8,2470.342,13.32,0.022,131.4
2020-09-08T04:55:03,42.805,6.029,0.021,-0.035,-0.001,104.0,106.0,102.0,13.3,1505.3,327.0,-0.7,1.8,2470.353,13.33,0.04,149.0
2020-09-08T04:58:03,42.805,6.029,0.0,-0.03,-0.047,103.0,106.0,100.0,13.3,1505.3,326.2,-0.7,1.8,2470.369,13.32,0.03,180.0
2020-09-08T05:04:03,42.805,6.029,0.022,-0.017,-0.008,103.0,106.0,101.0,13.4,1505.3,326.8,-0.7,1.8,2470.379,13.31,0.027,127.7
2020-09-08T05:07:03,42.805,6.029,0.041,-0.029,-0.009,103.0,107.0,102.0,13.3,1505.3,326.0,-0.7,1.8,2470.412,13.31,0.05,125.3
2020-09-08T05:10:03,42.805,6.029,0.014,-0.025,-0.006,103.0,107.0,101.0,13.4,1505.3,326.9,-0.7,1.8,2470.341,13.32,0.028,150.7
2020-09-08T05:13:03,42.805,6.029,0.023,-0.03,0.0,104.0,107.0,102.0,13.4,1505.3,325.3,-0.7,1.8,2470.362,13.32,0.037,142.5
2020-09-08T05:16:03,42.805,6.029,0.022,-0.009,0.0,104.0,107.0,101.0,13.3,1505.3,326.7,-0.7,1.8,2470.402,13.32,0.023,112.2
2020-09-08T05:19:03,42.805,6.029,0.034,-0.035,-0.011,104.0,107.0,102.0,13.4,1505.3,327.0,-0.7,1.8,2470.36,13.32,0.048,135.8
2020-09-08T05:22:03,42.805,6.029,0.039,-0.004,0.007,103.0,106.0,101.0,13.4,1505.3,325.4,-0.7,1.8,2470.381,13.32,0.039,95.9
2020-09-08T05:25:03,42.805,6.029,0.048,-0.021,-0.002,103.0,107.0,101.0,13.4,1505.3,324.5,-0.7,1.8,2470.337,13.32,0.052,113.6
2020-09-08T05:28:03,42.805,6.029,0.017,-0.008,-0.027,104.0,107.0,102.0,13.3,1505.3,326.2,-0.7,1.9,2470.365,13.32,0.018,115.2
2020-09-08T05:31:03,42.805,6.029,0.01,-0.013,-0.011,102.0,106.0,101.0,13.3,1505.3,325.3,-0.7,1.8,2470.386,13.33,0.016,142.4
2020-09-08T05:34:03,42.805,6.029,0.005,-0.013,-0.02,103.0,108.0,102.0,13.4,1505.3,324.8,-0.7,1.8,2470.351,13.33,0.013,159.0
2020-09-08T05:37:03,42.805,6.029,0.024,-0.007,-0.008,104.0,107.0,102.0,13.3,1505.3,324.4,-0.7,1.8,2470.341,13.33,0.025,106.3
2020-09-08T05:40:03,42.805,6.029,0.044,-0.02,0.027,103.0,108.0,101.0,13.4,1505.3,325.9,-0.7,1.8,2470.339,13.33,0.048,114.4
2020-09-08T05:43:03,42.805,6.029,0.005,-0.038,-0.013,104.0,106.0,101.0,13.4,1505.3,327.9,-0.7,1.8,2470.326,13.33,0.038,172.5
2020-09-08T05:46:03,42.805,6.029,0.003,-0.023,-0.005,104.0,107.0,102.0,13.3,1505.3,326.5,-0.7,1.8,2470.371,13.33,0.023,172.6
2020-09-08T05:49:03,42.805,6.029,0.019,-0.008,-0.022,106.0,108.0,101.0,13.4,1505.3,328.7,-0.7,1.8,2470.343,13.33,0.02,112.8
2020-09-08T05:52:04,42.805,6.029,0.016,0.001,-0.013,104.0,105.0,101.0,13.4,1505.3,324.4,-0.7,1.8,2470.353,13.33,0.016,86.4
2020-09-08T05:55:03,42.805,6.029,0.021,-0.022,-0.014,103.0,106.0,102.0,13.4,1505.3,324.2,-0.7,1.9,2470.382,13.33,0.03,136.3
2020-09-08T05:58:03,42.805,6.029,0.053,-0.001,0.015,104.0,107.0,100.0,13.4,1505.3,327.1,-0.7,1.8,2470.345,13.33,0.053,91.1
2020-09-08T06:04:03,42.805,6.029,0.054,-0.011,0.046,103.0,106.0,102.0,13.4,1505.3,323.7,-0.7,1.8,2470.395,13.31,0.055,101.5
2020-09-08T06:07:03,42.805,6.029,0.017,-0.003,-0.017,103.0,105.0,100.0,13.4,1505.3,326.3,-0.7,1.9,2470.344,13.31,0.017,100.0
2020-09-08T06:10:03,42.805,6.029,0.008,-0.013,-0.034,104.0,107.0,102.0,13.4,1505.3,326.5,-0.7,1.8,2470.353,13.32,0.015,148.4
2020-09-08T06:13:03,42.805,6.029,0.023,-0.02,-0.005,105.0,106.0,101.0,13.4,1505.3,328.0,-0.7,1.8,2470.358,13.32,0.03,131.0
2020-09-08T06:16:03,42.805,6.029,-0.004,-0.025,-0.007,103.0,106.0,101.0,13.4,1505.3,326.7,-0.7,1.8,2470.373,13.32,0.025,189.1
2020-09-08T06:19:03,42.805,6.029,0.027,-0.018,0.035,102.0,106.0,100.0,13.4,1505.3,328.1,-0.7,1.8,2470.411,13.33,0.032,123.7
2020-09-08T06:22:04,42.805,6.029,0.037,-0.001,0.02,102.0,108.0,102.0,13.4,1505.3,325.7,-0.7,1.9,2470.338,13.33,0.037,91.5
2020-09-08T06:25:03,42.805,6.029,0.044,-0.014,0.012,104.0,106.0,101.0,13.4,1505.3,324.3,-0.7,1.8,2470.361,13.33,0.046,107.6
2020-09-08T06:28:03,42.805,6.029,0.037,-0.003,0.005,104.0,106.0,101.0,13.4,1505.3,325.5,-0.7,1.8,2470.358,13.33,0.037,94.6
2020-09-08T06:31:03,42.805,6.029,0.023,-0.018,0.024,103.0,105.0,101.0,13.4,1505.3,328.2,-0.7,1.8,2470.318,13.33,0.029,128.0
2020-09-08T06:34:03,42.805,6.029,0.062,-0.025,0.008,104.0,105.0,100.0,13.4,1505.3,326.8,-0.7,1.8,2470.316,13.33,0.066,112.0
2020-09-08T06:37:03,42.805,6.029,0.021,-0.025,0.005,102.0,106.0,100.0,13.3,1505.3,324.7,-0.7,1.8,2470.375,13.33,0.032,140.0
2020-09-08T06:40:03,42.805,6.029,0.037,0.005,0.024,101.0,108.0,101.0,13.4,1505.3,326.7,-0.7,1.8,2470.402,13.33,0.037,82.3
2020-09-08T06:43:03,42.805,6.029,0.01,-0.008,0.008,101.0,106.0,101.0,13.3,1505.3,323.0,-0.7,1.8,2470.398,13.33,0.012,128.7
2020-09-08T06:46:03,42.805,6.029,-0.006,-0.002,-0.028,102.0,106.0,100.0,13.4,1505.3,327.2,-0.7,1.8,2470.393,13.33,0.006,251.6
2020-09-08T06:49:03,42.805,6.029,0.064,-0.019,0.026,103.0,106.0,101.0,13.4,1505.3,327.0,-0.7,1.8,2470.382,13.33,0.066,106.5
2020-09-08T06:52:03,42.805,6.029,0.085,-0.007,0.074,104.0,106.0,102.0,13.4,1505.3,324.8,-0.7,1.9,2470.365,13.33,0.085,94.7
2020-09-08T06:55:03,42.805,6.029,0.05,-0.004,0.053,102.0,106.0,100.0,13.4,1505.3,324.0,-0.7,1.8,2470.379,13.33,0.05,94.6
2020-09-08T06:58:03,42.805,6.029,0.062,-0.026,0.028,101.0,105.0,102.0,13.3,1505.3,326.5,-0.7,1.8,2470.373,13.33,0.067,112.7
2020-09-08T07:04:03,42.805,6.029,0.057,-0.001,0.039,101.0,107.0,101.0,13.4,1505.3,323.5,-0.7,1.9,2470.402,13.31,0.057,91.0
2020-09-08T07:07:03,42.805,6.029,0.025,-0.015,0.002,102.0,107.0,101.0,13.4,1505.3,326.4,-0.7,1.8,2470.414,13.31,0.029,121.0
2020-09-08T07:10:03,42.805,6.029,0.028,-0.011,-0.001,102.0,105.0,101.0,13.3,1505.3,326.3,-0.7,1.8,2470.357,13.32,0.03,111.4
2020-09-08T07:13:03,42.805,6.029,0.029,0.015,0.014,103.0,107.0,101.0,13.3,1505.3,328.5,-0.7,1.8,2470.428,13.32,0.032,62.6
2020-09-08T07:16:03,42.805,6.029,0.035,-0.006,0.0,103.0,106.0,100.0,13.4,1505.3,325.5,-0.7,1.9,2470.411,13.32,0.035,99.7
2020-09-08T07:19:03,42.805,6.029,0.048,-0.013,0.041,102.0,105.0,101.0,13.3,1505.3,322.8,-0.7,1.8,2470.405,13.33,0.049,105.2
2020-09-08T07:22:03,42.805,6.029,0.064,-0.022,0.025,104.0,105.0,101.0,13.3,1505.3,325.3,-0.7,1.8,2470.392,13.33,0.067,109.0
2020-09-08T07:25:03,42.805,6.029,0.09,-0.004,0.073,101.0,106.0,101.0,13.4,1505.3,323.0,-0.7,1.8,2470.423,13.33,0.09,92.5
2020-09-08T07:28:03,42.805,6.029,0.08,-0.001,0.053,102.0,107.0,100.0,13.4,1505.3,324.4,-0.7,1.8,2470.402,13.33,0.08,90.7
2020-09-08T07:31:03,42.805,6.029,0.017,-0.011,-0.021,102.0,107.0,101.0,13.3,1505.3,326.5,-0.7,1.8,2470.431,13.33,0.02,122.9
2020-09-08T07:34:03,42.805,6.029,0.001,-0.021,-0.01,102.0,105.0,100.0,13.3,1505.3,327.2,-0.7,1.8,2470.435,13.33,0.021,177.3
2020-09-08T07:37:03,42.805,6.029,0.045,-0.007,-0.007,104.0,107.0,100.0,13.4,1505.3,327.6,-0.7,1.8,2470.416,13.33,0.045,98.8
2020-09-08T07:40:03,42.805,6.029,0.02,-0.021,-0.014,103.0,107.0,100.0,13.4,1505.3,327.2,-0.7,1.8,2470.362,13.33,0.028,136.4
2020-09-08T07:43:03,42.805,6.029,0.068,-0.008,0.049,102.0,106.0,101.0,13.4,1505.3,325.2,-0.7,1.9,2470.394,13.33,0.068,96.7
2020-09-08T07:46:04,42.805,6.029,0.058,-0.02,0.003,104.0,107.0,101.0,13.4,1505.3,324.5,-0.7,1.8,2470.387,13.33,0.061,109.0
2020-09-08T07:49:03,42.805,6.029,0.05,0.008,0.053,103.0,106.0,101.0,13.3,1505.3,327.6,-0.7,1.8,2470.444,13.33,0.05,80.9
2020-09-08T07:52:03,42.805,6.029,0.051,-0.011,0.012,103.0,106.0,100.0,13.4,1505.3,326.7,-0.7,1.8,2470.406,13.33,0.052,102.2
2020-09-08T07:55:04,42.805,6.029,0.061,-0.025,0.048,104.0,106.0,101.0,13.4,1505.3,328.2,-0.7,1.8,2470.383,13.33,0.065,112.3
2020-09-08T07:58:03,42.805,6.029,0.042,-0.009,0.025,102.0,106.0,100.0,13.4,1505.3,326.6,-0.7,1.9,2470.38,13.33,0.042,102.1
2020-09-08T08:04:03,42.805,6.029,0.006,0.0,-0.031,103.0,108.0,100.0,13.4,1505.3,323.2,-0.7,1.8,2470.466,13.31,0.006,90.0
2020-09-08T08:07:03,42.805,6.029,0.034,0.005,0.019,101.0,108.0,101.0,13.4,1505.3,323.2,-0.7,1.8,2470.413,13.32,0.034,81.6
2020-09-08T08:10:03,42.805,6.029,0.08,-0.003,0.067,102.0,107.0,101.0,13.3,1505.3,325.7,-0.7,1.8,2470.456,13.32,0.08,92.1
2020-09-08T08:13:03,42.805,6.029,-0.034,0.002,-0.04,103.0,106.0,101.0,13.4,1505.3,324.6,-0.7,1.9,2470.407,13.32,0.034,273.4
2020-09-08T08:16:03,42.805,6.029,0.035,-0.008,0.012,102.0,109.0,101.0,13.3,1505.3,325.9,-0.7,1.8,2470.432,13.33,0.035,102.9
2020-09-08T08:19:03,42.805,6.029,-0.002,0.0,0.011,102.0,110.0,100.0,13.4,1505.3,323.6,-0.7,1.8,2470.416,13.33,0.002,270.0
2020-09-08T08:22:03,42.805,6.029,0.028,-0.006,0.019,103.0,107.0,101.0,13.4,1505.3,327.9,-0.7,1.8,2470.462,13.33,0.028,102.1
2020-09-08T08:25:03,42.805,6.029,0.051,0.005,0.039,103.0,108.0,101.0,13.4,1505.3,324.0,-0.7,1.8,2470.448,13.33,0.051,84.4
2020-09-08T08:28:03,42.805,6.029,0.012,-0.029,-0.014,100.0,109.0,101.0,13.3,1505.3,325.2,-0.7,1.8,2470.469,13.33,0.031,157.5
2020-09-08T08:31:03,42.805,6.029,-0.015,-0.011,-0.012,102.0,107.0,100.0,13.4,1505.3,326.9,-0.8,1.8,2470.432,13.33,0.018,233.7
2020-09-08T08:34:03,42.805,6.029,-0.022,-0.013,-0.013,102.0,106.0,101.0,13.3,1505.3,326.2,-0.7,1.8,2470.41,13.33,0.025,239.4
2020-09-08T08:37:03,42.805,6.029,0.048,-0.018,0.001,101.0,107.0,100.0,13.4,1505.3,325.4,-0.7,1.8,2470.385,13.33,0.051,110.6
2020-09-08T08:40:04,42.805,6.029,0.071,-0.024,0.024,102.0,107.0,101.0,13.3,1505.3,327.5,-0.7,1.8,2470.495,13.33,0.074,108.7
2020-09-08T08:43:03,42.805,6.029,0.0,-0.012,-0.042,102.0,108.0,101.0,13.3,1505.3,327.7,-0.7,1.8,2470.421,13.33,0.012,180.0
2020-09-08T08:46:03,42.805,6.029,0.027,-0.025,-0.033,103.0,107.0,101.0,13.4,1505.3,323.7,-0.7,1.8,2470.43,13.33,0.036,132.8
2020-09-08T08:49:03,42.805,6.029,0.026,-0.005,0.001,102.0,106.0,102.0,13.3,1505.3,325.0,-0.7,1.8,2470.433,13.33,0.026,100.9
2020-09-08T08:52:03,42.805,6.029,0.018,-0.001,0.025,102.0,107.0,101.0,13.3,1505.3,326.6,-0.7,1.8,2470.418,13.33,0.018,93.2
2020-09-08T08:55:03,42.805,6.029,0.013,0.0,0.009,103.0,106.0,100.0,13.3,1505.3,325.9,-0.7,1.8,2470.458,13.33,0.013,90.0
2020-09-08T08:58:03,42.805,6.029,0.046,-0.009,0.017,102.0,107.0,100.0,13.4,1505.3,326.4,-0.7,1.8,2470.402,13.33,0.046,101.1
2020-09-08T09:04:04,42.805,6.029,0.019,0.001,0.015,104.0,106.0,101.0,13.3,1505.3,324.7,-0.7,1.9,2470.489,13.31,0.019,87.0
2020-09-08T09:07:04,42.805,6.029,0.012,-0.02,0.013,103.0,107.0,102.0,13.4,1505.3,323.6,-0.7,1.8,2470.494,13.32,0.023,149.0
2020-09-08T09:10:03,42.805,6.029,0.034,-0.014,0.013,103.0,108.0,101.0,13.4,1505.3,326.8,-0.7,1.8,2470.506,13.32,0.036,112.4
2020-09-08T09:13:03,42.805,6.029,0.051,0.003,0.05,104.0,108.0,101.0,13.4,1505.3,326.3,-0.7,1.8,2470.484,13.33,0.051,86.6
2020-09-08T09:16:03,42.805,6.029,-0.01,-0.005,-0.022,104.0,107.0,101.0,13.4,1505.3,327.0,-0.7,1.8,2470.431,13.33,0.011,243.4
2020-09-08T09:19:03,42.805,6.029,-0.029,-0.001,-0.023,103.0,105.0,101.0,13.3,1505.3,328.4,-0.7,1.8,2470.44,13.33,0.029,268.0
2020-09-08T09:22:03,42.805,6.029,0.007,-0.001,-0.007,103.0,103.0,101.0,13.4,1505.3,328.1,-0.7,1.8,2470.437,13.33,0.007,98.1
2020-09-08T09:25:03,42.805,6.029,-0.001,-0.003,-0.013,103.0,103.0,101.0,13.4,1505.3,324.5,-0.7,1.8,2470.453,13.33,0.003,198.4
2020-09-08T09:28:03,42.805,6.029,0.015,0.003,-0.004,101.0,104.0,102.0,13.3,1505.3,323.3,-0.7,1.8,2470.501,13.33,0.015,78.7
2020-09-08T09:31:03,42.805,6.029,0.019,0.005,0.026,102.0,105.0,102.0,13.4,1505.3,322.6,-0.7,1.8,2470.478,13.33,0.019,75.3
2020-09-08T09:34:03,42.805,6.029,0.032,0.009,-0.004,102.0,104.0,100.0,13.4,1505.3,323.9,-0.7,1.8,2470.469,13.33,0.033,74.3
2020-09-08T09:37:03,42.805,6.029,0.015,0.009,0.013,102.0,106.0,100.0,13.4,1505.3,326.0,-0.7,1.8,2470.469,13.33,0.017,59.0
2020-09-08T09:40:03,42.805,6.029,-0.047,-0.024,-0.089,103.0,105.0,101.0,13.4,1505.3,324.7,-0.7,1.8,2470.462,13.33,0.052,243.0
2020-09-08T09:43:03,42.805,6.029,-0.032,-0.005,-0.034,103.0,108.0,103.0,13.4,1505.3,326.3,-0.7,1.8,2470.479,13.33,0.032,261.1
2020-09-08T09:46:03,42.805,6.029,-0.076,-0.003,-0.056,103.0,106.0,100.0,13.4,1505.3,322.8,-0.7,1.8,2470.456,13.33,0.076,267.7
2020-09-08T09:49:03,42.805,6.029,-0.048,0.014,-0.054,103.0,106.0,100.0,13.4,1505.3,325.3,-0.7,1.8,2470.497,13.33,0.05,286.3
2020-09-08T09:52:03,42.805,6.029,-0.047,-0.011,-0.063,105.0,106.0,102.0,13.4,1505.3,323.3,-0.7,1.8,2470.474,13.33,0.048,256.8
2020-09-08T09:55:03,42.805,6.029,-0.064,-0.008,-0.086,101.0,106.0,101.0,13.4,1505.3,323.5,-0.7,1.8,2470.488,13.33,0.064,262.9
2020-09-08T09:58:03,42.805,6.029,-0.06,0.003,-0.083,101.0,105.0,101.0,13.4,1505.3,328.2,-0.7,1.9,2470.477,13.33,0.06,272.9